Location: Olsztyn
(53.7767°N, 20.4765°E)
Time: 07:55:48
(UTC+01:00)

Transit 4A - Pass Details

Date: 09 October 2022
Orbit: 871 x 972 km, 66.8° (Epoch: 06 December)

Event Time Altitude Azimuth Distance (km) Brightness Sun altitude
Exits shadow 01:26:45 23° 0° (N) 1,790 9.8 -40.8°
Drops below altitude 10° 01:30:58 10° 46° (NE) 2,549 10.8 -40.6°
Sets 01:33:58 0° 61° (ENE) 3,479 11.5 -40.4°
